Time,TemperatureF,DewpointF,PressureIn,WindDirection,WindDirectionDegrees,WindSpeedMPH,WindSpeedGustMPH,Humidity,HourlyPrecipIn,Conditions,Clouds,dailyrainin,SoftwareType,DateUTC
2013-07-20 00:00:00,53.1,50.5,29.76,SSE,167,0.0,0.0,91,0.00,,---,0.00,VWS V14.01,2013-07-20 06:00:00,
2013-07-20 00:02:00,53.1,50.5,29.76,SSE,167,0.0,0.0,91,0.00,,---,0.00,VWS V14.01,2013-07-20 06:02:00,
2013-07-20 00:10:00,52.9,50.6,29.75,SSE,167,0.0,0.0,92,0.00,,---,0.00,VWS V14.01,2013-07-20 06:10:00,
2013-07-20 00:12:00,52.9,50.6,29.75,SSE,167,0.0,0.0,92,0.00,,---,0.00,VWS V14.01,2013-07-20 06:12:00,
2013-07-20 00:20:00,53.0,50.7,29.74,SSE,167,0.0,0.0,92,0.00,,---,0.00,VWS V14.01,2013-07-20 06:20:00,
2013-07-20 00:22:00,53.0,50.7,29.74,SSE,167,0.0,0.0,92,0.00,,---,0.00,VWS V14.01,2013-07-20 06:22:00,
2013-07-20 00:30:00,52.4,49.8,29.74,SSE,167,0.0,0.0,91,0.00,,---,0.00,VWS V14.01,2013-07-20 06:30:00,
2013-07-20 00:32:00,52.4,49.8,29.74,SSE,167,0.0,0.0,91,0.00,,---,0.00,VWS V14.01,2013-07-20 06:32:00,
2013-07-20 00:40:00,51.8,49.3,29.74,SSE,167,0.0,0.0,91,0.00,,---,0.00,VWS V14.01,2013-07-20 06:40:00,
2013-07-20 00:42:00,51.8,49.3,29.74,SSE,167,0.0,0.0,91,0.00,,---,0.00,VWS V14.01,2013-07-20 06:42:00,
2013-07-20 00:50:00,51.8,49.6,29.73,SSE,167,0.0,0.0,92,0.00,,---,0.00,VWS V14.01,2013-07-20 06:50:00,
2013-07-20 00:52:00,51.8,49.5,29.73,SSE,167,0.0,0.0,92,0.00,,---,0.00,VWS V14.01,2013-07-20 06:52:00,
2013-07-20 01:00:00,51.6,49.4,29.72,SSE,167,0.0,2.0,92,0.00,,---,0.00,VWS V14.01,2013-07-20 07:00:00,
2013-07-20 01:02:00,51.6,49.4,29.72,SSE,167,0.0,2.0,92,0.00,,---,0.00,VWS V14.01,2013-07-20 07:02:00,
2013-07-20 01:10:00,51.7,49.5,29.72,SSE,167,0.0,2.0,92,0.00,,---,0.00,VWS V14.01,2013-07-20 07:10:00,
2013-07-20 01:12:00,51.7,49.5,29.72,SSE,167,0.0,2.0,92,0.00,,---,0.00,VWS V14.01,2013-07-20 07:12:00,
2013-07-20 01:20:00,51.5,49.0,29.73,SSE,167,3.0,5.0,91,0.00,,---,0.00,VWS V14.01,2013-07-20 07:20:00,
2013-07-20 01:22:00,51.5,49.0,29.73,SSE,167,3.0,5.0,91,0.00,,---,0.00,VWS V14.01,2013-07-20 07:22:00,
2013-07-20 01:30:00,51.7,48.6,29.71,SSE,167,0.0,4.0,89,0.00,,---,0.00,VWS V14.01,2013-07-20 07:30:00,
2013-07-20 01:32:00,51.7,48.6,29.71,SSE,167,0.0,4.0,89,0.00,,---,0.00,VWS V14.01,2013-07-20 07:32:00,
2013-07-20 01:40:00,51.4,48.3,29.73,SSE,167,0.0,0.0,89,0.00,,---,0.00,VWS V14.01,2013-07-20 07:40:00,
2013-07-20 01:42:00,51.4,48.3,29.73,SSE,167,0.0,0.0,89,0.00,,---,0.00,VWS V14.01,2013-07-20 07:42:00,
2013-07-20 01:50:00,50.9,48.1,29.72,SSE,167,0.0,0.0,90,0.00,,---,0.00,VWS V14.01,2013-07-20 07:50:00,
2013-07-20 01:52:00,50.9,48.1,29.72,SSE,167,0.0,0.0,90,0.00,,---,0.00,VWS V14.01,2013-07-20 07:52:00,
2013-07-20 02:00:00,50.6,48.4,29.72,SSE,167,0.0,0.0,92,0.00,,---,0.00,VWS V14.01,2013-07-20 08:00:00,
2013-07-20 02:02:00,50.6,48.4,29.72,SSE,167,0.0,0.0,92,0.00,,---,0.00,VWS V14.01,2013-07-20 08:02:00,
2013-07-20 02:10:00,50.6,48.7,29.75,SSE,167,0.0,0.0,93,0.00,,---,0.00,VWS V14.01,2013-07-20 08:10:00,
2013-07-20 02:12:00,50.6,48.7,29.75,SSE,167,0.0,0.0,93,0.00,,---,0.00,VWS V14.01,2013-07-20 08:12:00,
2013-07-20 02:20:00,50.7,48.8,29.75,SSE,167,0.0,0.0,93,0.00,,---,0.00,VWS V14.01,2013-07-20 08:20:00,
2013-07-20 02:22:00,50.7,48.8,29.75,SSE,167,0.0,0.0,93,0.00,,---,0.00,VWS V14.01,2013-07-20 08:22:00,
2013-07-20 02:30:00,51.0,48.8,29.75,SSE,167,0.0,0.0,92,0.00,,---,0.00,VWS V14.01,2013-07-20 08:30:00,
2013-07-20 02:32:00,51.0,48.8,29.75,SSE,167,0.0,0.0,92,0.00,,---,0.00,VWS V14.01,2013-07-20 08:32:00,
2013-07-20 02:40:00,51.1,48.6,29.75,SSE,167,0.0,0.0,91,0.00,,---,0.00,VWS V14.01,2013-07-20 08:40:00,
2013-07-20 02:42:00,51.1,48.6,29.75,SSE,167,0.0,0.0,91,0.00,,---,0.00,VWS V14.01,2013-07-20 08:42:00,
2013-07-20 02:50:00,51.4,48.6,29.75,SSE,167,0.0,0.0,90,0.00,,---,0.00,VWS V14.01,2013-07-20 08:50:00,
2013-07-20 02:52:00,51.4,48.6,29.75,SSE,167,0.0,0.0,90,0.00,,---,0.00,VWS V14.01,2013-07-20 08:52:00,
2013-07-20 03:00:00,51.4,48.6,29.75,SSE,167,0.0,0.0,90,0.00,,---,0.00,VWS V14.01,2013-07-20 09:00:00,
2013-07-20 03:02:00,51.4,48.6,29.75,SSE,167,0.0,0.0,90,0.00,,---,0.00,VWS V14.01,2013-07-20 09:02:00,
2013-07-20 03:10:00,50.9,48.1,29.78,SSE,167,0.0,0.0,90,0.00,,---,0.00,VWS V14.01,2013-07-20 09:10:00,
2013-07-20 03:12:00,50.9,48.1,29.78,SSE,167,0.0,0.0,90,0.00,,---,0.00,VWS V14.01,2013-07-20 09:12:00,
2013-07-20 03:20:00,50.4,47.9,29.78,SSE,167,0.0,0.0,91,0.00,,---,0.00,VWS V14.01,2013-07-20 09:20:00,
2013-07-20 03:22:00,50.4,47.9,29.78,SSE,167,0.0,0.0,91,0.00,,---,0.00,VWS V14.01,2013-07-20 09:22:00,
2013-07-20 03:30:00,50.5,48.0,29.78,SSE,167,0.0,0.0,91,0.00,,---,0.00,VWS V14.01,2013-07-20 09:30:00,
2013-07-20 03:32:00,50.5,48.0,29.78,SSE,167,0.0,0.0,91,0.00,,---,0.00,VWS V14.01,2013-07-20 09:32:00,
2013-07-20 03:40:00,50.3,47.5,29.78,SSE,167,0.0,3.0,90,0.00,,---,0.00,VWS V14.01,2013-07-20 09:40:00,
2013-07-20 03:42:00,50.3,47.5,29.78,SSE,167,0.0,3.0,90,0.00,,---,0.00,VWS V14.01,2013-07-20 09:42:00,
2013-07-20 03:50:00,50.1,47.3,29.78,SSE,167,0.0,1.0,90,0.00,,---,0.00,VWS V14.01,2013-07-20 09:50:00,
2013-07-20 03:52:00,50.1,47.3,29.78,SSE,167,0.0,1.0,90,0.00,,---,0.00,VWS V14.01,2013-07-20 09:52:00,
2013-07-20 04:00:00,49.8,47.0,29.78,SSE,167,0.0,0.0,90,0.00,,---,0.00,VWS V14.01,2013-07-20 10:00:00,
2013-07-20 04:02:00,49.8,47.0,29.78,SSE,167,0.0,0.0,90,0.00,,---,0.00,VWS V14.01,2013-07-20 10:02:00,
2013-07-20 04:10:00,49.6,46.5,29.77,SSE,167,0.0,1.0,89,0.01,,---,0.01,VWS V14.01,2013-07-20 10:10:00,
2013-07-20 04:12:00,49.6,46.5,29.77,SSE,167,0.0,1.0,89,0.01,,---,0.01,VWS V14.01,2013-07-20 10:12:00,
2013-07-20 04:20:00,48.9,46.1,29.78,SSE,167,0.0,0.0,90,0.01,,---,0.01,VWS V14.01,2013-07-20 10:20:00,
2013-07-20 04:22:00,48.9,46.1,29.78,SSE,167,0.0,0.0,90,0.01,,---,0.01,VWS V14.01,2013-07-20 10:22:00,
2013-07-20 04:30:00,48.6,45.8,29.78,SSE,167,0.0,0.0,90,0.01,,---,0.01,VWS V14.01,2013-07-20 10:30:00,
2013-07-20 04:32:00,48.6,45.8,29.78,SSE,167,0.0,0.0,90,0.01,,---,0.01,VWS V14.01,2013-07-20 10:32:00,
2013-07-20 04:40:00,48.3,45.5,29.78,SSE,167,0.0,2.0,90,0.01,,---,0.01,VWS V14.01,2013-07-20 10:40:00,
2013-07-20 04:42:00,48.3,45.5,29.78,SSE,167,0.0,2.0,90,0.01,,---,0.01,VWS V14.01,2013-07-20 10:42:00,
2013-07-20 04:50:00,48.2,45.4,29.78,SSE,167,0.0,1.0,90,0.01,,---,0.01,VWS V14.01,2013-07-20 10:50:00,
2013-07-20 04:52:00,48.2,45.4,29.78,SSE,167,0.0,1.0,90,0.01,,---,0.01,VWS V14.01,2013-07-20 10:52:00,
2013-07-20 05:00:00,48.2,45.7,29.78,SSE,167,0.0,0.0,91,0.01,,---,0.01,VWS V14.01,2013-07-20 11:00:00,
2013-07-20 05:02:00,48.2,45.7,29.78,SSE,167,0.0,0.0,91,0.01,,---,0.01,VWS V14.01,2013-07-20 11:02:00,
2013-07-20 05:10:00,48.1,45.6,29.80,SSE,167,0.0,0.0,91,0.01,,---,0.01,VWS V14.01,2013-07-20 11:10:00,
2013-07-20 05:12:00,48.1,45.6,29.80,SSE,167,0.0,0.0,91,0.01,,---,0.01,VWS V14.01,2013-07-20 11:12:00,
2013-07-20 05:20:00,48.8,46.0,29.80,SSE,167,0.0,0.0,90,0.00,,---,0.01,VWS V14.01,2013-07-20 11:20:00,
2013-07-20 05:22:00,48.8,46.0,29.80,SSE,167,0.0,0.0,90,0.00,,---,0.01,VWS V14.01,2013-07-20 11:22:00,
2013-07-20 05:30:00,48.5,45.1,29.79,SSE,167,0.0,0.0,88,0.00,,---,0.01,VWS V14.01,2013-07-20 11:30:00,
2013-07-20 05:32:00,48.5,45.1,29.79,SSE,167,0.0,0.0,88,0.00,,---,0.01,VWS V14.01,2013-07-20 11:32:00,
2013-07-20 05:40:00,47.8,45.0,29.80,SSE,167,0.0,3.0,90,0.00,,---,0.01,VWS V14.01,2013-07-20 11:40:00,
2013-07-20 05:42:00,47.8,45.0,29.80,SSE,167,0.0,3.0,90,0.00,,---,0.01,VWS V14.01,2013-07-20 11:42:00,
2013-07-20 05:50:00,47.6,45.1,29.79,SSE,167,0.0,0.0,91,0.00,,---,0.01,VWS V14.01,2013-07-20 11:50:00,
2013-07-20 05:52:00,47.6,45.1,29.79,SSE,167,0.0,0.0,91,0.00,,---,0.01,VWS V14.01,2013-07-20 11:52:00,
2013-07-20 06:00:00,48.0,45.2,29.80,SSE,167,0.0,0.0,90,0.00,,---,0.01,VWS V14.01,2013-07-20 12:00:00,
2013-07-20 06:02:00,48.0,45.2,29.80,SSE,167,0.0,0.0,90,0.00,,---,0.01,VWS V14.01,2013-07-20 12:02:00,
2013-07-20 06:10:00,47.9,45.1,29.82,SSE,167,0.0,0.0,90,0.00,,---,0.01,VWS V14.01,2013-07-20 12:10:00,
2013-07-20 06:12:00,47.9,45.1,29.82,SSE,167,0.0,0.0,90,0.00,,---,0.01,VWS V14.01,2013-07-20 12:12:00,
2013-07-20 06:20:00,47.9,45.1,29.82,SSE,167,0.0,0.0,90,0.00,,---,0.01,VWS V14.01,2013-07-20 12:20:00,
2013-07-20 06:22:00,47.9,45.1,29.82,SSE,167,0.0,0.0,90,0.00,,---,0.01,VWS V14.01,2013-07-20 12:22:00,
2013-07-20 06:30:00,48.5,46.0,29.83,SSE,167,0.0,0.0,91,0.00,,---,0.01,VWS V14.01,2013-07-20 12:30:00,
2013-07-20 06:32:00,48.5,46.0,29.83,SSE,167,0.0,0.0,91,0.00,,---,0.01,VWS V14.01,2013-07-20 12:32:00,
2013-07-20 06:40:00,50.2,47.1,29.81,SSE,167,0.0,5.0,89,0.00,,---,0.01,VWS V14.01,2013-07-20 12:40:00,
2013-07-20 06:42:00,50.2,47.1,29.81,SSE,167,0.0,5.0,89,0.00,,---,0.01,VWS V14.01,2013-07-20 12:42:00,
2013-07-20 06:50:00,51.3,47.3,29.80,SSE,167,0.0,0.0,86,0.00,,---,0.01,VWS V14.01,2013-07-20 12:50:00,
2013-07-20 06:52:00,51.3,47.3,29.80,SSE,167,0.0,0.0,86,0.00,,---,0.01,VWS V14.01,2013-07-20 12:52:00,
2013-07-20 07:00:00,52.1,47.7,29.78,SSE,167,0.0,0.0,85,0.00,,---,0.01,VWS V14.01,2013-07-20 13:00:00,
2013-07-20 07:02:00,52.1,47.7,29.78,SSE,167,0.0,0.0,85,0.00,,---,0.01,VWS V14.01,2013-07-20 13:02:00,
2013-07-20 07:10:00,53.3,48.9,29.78,SSE,167,0.0,0.0,85,0.00,,---,0.01,VWS V14.01,2013-07-20 13:10:00,
2013-07-20 07:12:00,53.3,48.9,29.78,SSE,167,0.0,0.0,85,0.00,,---,0.01,VWS V14.01,2013-07-20 13:12:00,
2013-07-20 07:20:00,54.1,48.4,29.77,SSE,167,0.0,4.0,81,0.00,,---,0.01,VWS V14.01,2013-07-20 13:20:00,
2013-07-20 07:22:00,54.1,48.4,29.77,SSE,167,0.0,4.0,81,0.00,,---,0.01,VWS V14.01,2013-07-20 13:22:00,
2013-07-20 07:30:00,55.1,49.0,29.77,SSE,167,0.0,0.0,80,0.00,,---,0.01,VWS V14.01,2013-07-20 13:30:00,
2013-07-20 07:32:00,55.1,49.0,29.77,SSE,167,0.0,0.0,80,0.00,,---,0.01,VWS V14.01,2013-07-20 13:32:00,
2013-07-20 07:40:00,57.0,49.9,29.75,SSE,167,0.0,0.0,77,0.00,,---,0.01,VWS V14.01,2013-07-20 13:40:00,
2013-07-20 07:42:00,57.0,49.9,29.75,SSE,167,0.0,0.0,77,0.00,,---,0.01,VWS V14.01,2013-07-20 13:42:00,
2013-07-20 07:50:00,57.4,49.2,29.73,SSE,167,0.0,0.0,74,0.00,,---,0.01,VWS V14.01,2013-07-20 13:50:00,
2013-07-20 07:52:00,57.4,49.2,29.73,SSE,167,0.0,0.0,74,0.00,,---,0.01,VWS V14.01,2013-07-20 13:52:00,
2013-07-20 08:00:00,57.5,48.6,29.73,SSE,165,3.0,3.0,72,0.00,,---,0.01,VWS V14.01,2013-07-20 14:00:00,
2013-07-20 08:02:00,57.5,48.6,29.73,SSE,165,3.0,3.0,72,0.00,,---,0.01,VWS V14.01,2013-07-20 14:02:00,
2013-07-20 08:10:00,58.2,48.8,29.75,SSE,165,0.0,4.0,71,0.00,,---,0.01,VWS V14.01,2013-07-20 14:10:00,
2013-07-20 08:12:00,58.2,48.8,29.75,SSE,165,0.0,4.0,71,0.00,,---,0.01,VWS V14.01,2013-07-20 14:12:00,
2013-07-20 08:20:00,59.0,49.6,29.75,SSE,160,0.0,6.0,71,0.00,,---,0.01,VWS V14.01,2013-07-20 14:20:00,
2013-07-20 08:22:00,59.0,49.6,29.75,SSE,160,0.0,6.0,71,0.00,,---,0.01,VWS V14.01,2013-07-20 14:22:00,
2013-07-20 08:30:00,59.1,49.0,29.75,SSE,160,0.0,0.0,69,0.00,,---,0.01,VWS V14.01,2013-07-20 14:30:00,
2013-07-20 08:32:00,59.1,49.0,29.75,SSE,160,0.0,0.0,69,0.00,,---,0.01,VWS V14.01,2013-07-20 14:32:00,
2013-07-20 08:40:00,59.7,48.7,29.72,SSE,160,0.0,0.0,67,0.00,,---,0.01,VWS V14.01,2013-07-20 14:40:00,
2013-07-20 08:42:00,59.7,48.7,29.72,SSE,160,0.0,0.0,67,0.00,,---,0.01,VWS V14.01,2013-07-20 14:42:00,
2013-07-20 08:50:00,60.4,49.8,29.72,SSE,155,0.0,4.0,68,0.00,,---,0.01,VWS V14.01,2013-07-20 14:50:00,
2013-07-20 08:52:00,60.4,49.8,29.72,SSE,155,0.0,4.0,68,0.00,,---,0.01,VWS V14.01,2013-07-20 14:52:00,
2013-07-20 09:00:00,61.3,49.5,29.72,SSE,155,6.0,6.0,65,0.00,,---,0.01,VWS V14.01,2013-07-20 15:00:00,
2013-07-20 09:02:00,61.3,49.5,29.72,SSE,155,6.0,6.0,65,0.00,,---,0.01,VWS V14.01,2013-07-20 15:02:00,
2013-07-20 09:10:00,61.5,50.5,29.70,SSE,155,1.0,7.0,67,0.00,,---,0.01,VWS V14.01,2013-07-20 15:10:00,
2013-07-20 09:12:00,61.5,50.5,29.70,SSE,155,1.0,7.0,67,0.00,,---,0.01,VWS V14.01,2013-07-20 15:12:00,
2013-07-20 09:20:00,62.4,50.9,29.70,SSE,155,4.0,5.0,66,0.00,,---,0.01,VWS V14.01,2013-07-20 15:20:00,
2013-07-20 09:22:00,62.4,50.9,29.70,SSE,155,4.0,5.0,66,0.00,,---,0.01,VWS V14.01,2013-07-20 15:22:00,
2013-07-20 09:30:00,62.9,50.1,29.69,SSE,155,3.0,6.0,63,0.00,,---,0.01,VWS V14.01,2013-07-20 15:30:00,
2013-07-20 09:32:00,62.9,50.1,29.69,SSE,155,3.0,6.0,63,0.00,,---,0.01,VWS V14.01,2013-07-20 15:32:00,
2013-07-20 09:40:00,63.5,51.1,29.69,SSE,155,5.0,7.0,64,0.00,,---,0.01,VWS V14.01,2013-07-20 15:40:00,
2013-07-20 09:42:00,63.5,51.1,29.69,SSE,155,5.0,7.0,64,0.00,,---,0.01,VWS V14.01,2013-07-20 15:42:00,
2013-07-20 09:50:00,63.9,50.6,29.67,SSE,155,6.0,8.0,62,0.00,,---,0.01,VWS V14.01,2013-07-20 15:50:00,
2013-07-20 09:52:00,63.9,50.6,29.67,SSE,155,6.0,8.0,62,0.00,,---,0.01,VWS V14.01,2013-07-20 15:52:00,
2013-07-20 10:00:00,64.7,51.0,29.67,SSE,159,5.0,10.0,61,0.00,,---,0.01,VWS V14.01,2013-07-20 16:00:00,
2013-07-20 10:02:00,64.7,51.0,29.67,SSE,159,5.0,10.0,61,0.00,,---,0.01,VWS V14.01,2013-07-20 16:02:00,
2013-07-20 10:10:00,65.1,51.3,29.67,SSE,161,2.0,10.0,61,0.00,,---,0.01,VWS V14.01,2013-07-20 16:10:00,
2013-07-20 10:12:00,65.1,51.3,29.67,SSE,161,2.0,10.0,61,0.00,,---,0.01,VWS V14.01,2013-07-20 16:12:00,
2013-07-20 10:20:00,66.3,50.6,29.66,SSE,165,2.0,10.0,57,0.00,,---,0.01,VWS V14.01,2013-07-20 16:20:00,
2013-07-20 10:22:00,66.3,50.6,29.66,SSE,165,2.0,10.0,57,0.00,,---,0.01,VWS V14.01,2013-07-20 16:22:00,
2013-07-20 10:30:00,66.8,51.6,29.64,SSE,165,5.0,10.0,58,0.00,,---,0.01,VWS V14.01,2013-07-20 16:30:00,
2013-07-20 10:32:00,66.8,51.6,29.64,SSE,165,5.0,10.0,58,0.00,,---,0.01,VWS V14.01,2013-07-20 16:32:00,
2013-07-20 10:40:00,67.7,51.0,29.64,SSE,165,0.0,9.0,55,0.00,,---,0.01,VWS V14.01,2013-07-20 16:40:00,
2013-07-20 10:42:00,67.7,51.0,29.64,SSE,165,0.0,9.0,55,0.00,,---,0.01,VWS V14.01,2013-07-20 16:42:00,
2013-07-20 10:50:00,68.6,50.8,29.64,SSE,165,0.0,8.0,53,0.00,,---,0.01,VWS V14.01,2013-07-20 16:50:00,
2013-07-20 10:52:00,68.6,50.8,29.64,SSE,165,0.0,8.0,53,0.00,,---,0.01,VWS V14.01,2013-07-20 16:52:00,
2013-07-20 11:00:00,69.6,51.7,29.62,SSE,165,5.0,5.0,53,0.00,,---,0.01,VWS V14.01,2013-07-20 17:00:00,
2013-07-20 11:02:00,69.6,51.7,29.62,SSE,165,5.0,5.0,53,0.00,,---,0.01,VWS V14.01,2013-07-20 17:02:00,
2013-07-20 11:10:00,71.2,54.7,29.60,SSE,164,3.0,7.0,56,0.00,,---,0.01,VWS V14.01,2013-07-20 17:10:00,
2013-07-20 11:12:00,71.2,54.7,29.60,SSE,164,3.0,7.0,56,0.00,,---,0.01,VWS V14.01,2013-07-20 17:12:00,
2013-07-20 11:20:00,72.9,53.7,29.58,SSE,163,7.0,7.0,51,0.00,,---,0.01,VWS V14.01,2013-07-20 17:20:00,
2013-07-20 11:22:00,72.9,53.7,29.58,SSE,163,7.0,7.0,51,0.00,,---,0.01,VWS V14.01,2013-07-20 17:22:00,
2013-07-20 11:30:00,73.3,53.6,29.58,SE,134,9.0,11.0,50,0.00,,---,0.01,VWS V14.01,2013-07-20 17:30:00,
2013-07-20 11:32:00,73.3,53.6,29.58,SE,134,9.0,11.0,50,0.00,,---,0.01,VWS V14.01,2013-07-20 17:32:00,
2013-07-20 11:40:00,74.3,43.4,29.59,North,349,10.0,11.0,33,0.00,,---,0.01,VWS V14.01,2013-07-20 17:40:00,
2013-07-20 11:42:00,74.3,43.4,29.59,North,349,10.0,11.0,33,0.00,,---,0.01,VWS V14.01,2013-07-20 17:42:00,
2013-07-20 11:50:00,77.8,38.2,29.57,NW,314,17.0,21.0,24,0.00,,---,0.01,VWS V14.01,2013-07-20 17:50:00,
2013-07-20 11:52:00,77.8,38.2,29.57,NW,314,17.0,21.0,24,0.00,,---,0.01,VWS V14.01,2013-07-20 17:52:00,
2013-07-20 12:00:00,78.7,41.0,29.55,NW,324,12.0,20.0,26,0.00,,---,0.01,VWS V14.01,2013-07-20 18:00:00,
2013-07-20 12:02:00,78.7,41.0,29.55,NW,324,12.0,20.0,26,0.00,,---,0.01,VWS V14.01,2013-07-20 18:02:00,
2013-07-20 12:10:00,78.5,39.8,29.56,NNW,341,14.0,21.0,25,0.00,,---,0.01,VWS V14.01,2013-07-20 18:10:00,
2013-07-20 12:12:00,78.5,39.8,29.56,NNW,341,14.0,21.0,25,0.00,,---,0.01,VWS V14.01,2013-07-20 18:12:00,
2013-07-20 12:20:00,78.7,35.5,29.56,NW,325,12.0,18.0,21,0.00,,---,0.01,VWS V14.01,2013-07-20 18:20:00,
2013-07-20 12:22:00,78.7,35.5,29.56,NW,325,12.0,18.0,21,0.00,,---,0.01,VWS V14.01,2013-07-20 18:22:00,
2013-07-20 12:30:00,79.9,39.9,29.53,NNW,347,17.0,21.0,24,0.00,,---,0.01,VWS V14.01,2013-07-20 18:30:00,
2013-07-20 12:32:00,79.9,39.9,29.53,NNW,347,17.0,21.0,24,0.00,,---,0.01,VWS V14.01,2013-07-20 18:32:00,
2013-07-20 12:40:00,79.3,39.4,29.56,NW,322,16.0,21.0,24,0.00,,---,0.01,VWS V14.01,2013-07-20 18:40:00,
2013-07-20 12:42:00,79.3,39.4,29.56,NW,322,16.0,21.0,24,0.00,,---,0.01,VWS V14.01,2013-07-20 18:42:00,
2013-07-20 12:50:00,78.1,39.5,29.55,NW,305,10.0,20.0,25,0.00,,---,0.01,VWS V14.01,2013-07-20 18:50:00,
2013-07-20 13:00:00,76.2,37.8,29.57,WNW,288,14.0,19.0,25,0.00,,---,0.01,VWS V14.01,2013-07-20 19:00:00,
2013-07-20 13:10:00,76.6,37.1,29.57,WNW,290,12.0,19.0,24,0.00,,---,0.01,VWS V14.01,2013-07-20 19:10:00,
2013-07-20 13:12:00,76.6,37.1,29.57,WNW,290,12.0,19.0,24,0.00,,---,0.01,VWS V14.01,2013-07-20 19:12:00,
2013-07-20 13:20:00,76.6,38.2,29.57,NW,317,10.0,15.0,25,0.00,,---,0.01,VWS V14.01,2013-07-20 19:20:00,
2013-07-20 13:22:00,76.6,38.2,29.57,NW,317,10.0,15.0,25,0.00,,---,0.01,VWS V14.01,2013-07-20 19:22:00,
2013-07-20 13:30:00,76.6,40.2,29.57,NW,306,11.0,18.0,27,0.00,,---,0.01,VWS V14.01,2013-07-20 19:30:00,
2013-07-20 13:32:00,76.6,40.2,29.57,NW,306,11.0,18.0,27,0.00,,---,0.01,VWS V14.01,2013-07-20 19:32:00,
2013-07-20 13:40:00,77.0,35.3,29.57,NNW,333,10.0,17.0,22,0.00,,---,0.01,VWS V14.01,2013-07-20 19:40:00,
2013-07-20 13:42:00,77.0,35.3,29.57,NNW,333,10.0,17.0,22,0.00,,---,0.01,VWS V14.01,2013-07-20 19:42:00,
2013-07-20 13:50:00,79.0,38.1,29.54,NNW,346,9.0,19.0,23,0.00,,---,0.01,VWS V14.01,2013-07-20 19:50:00,
2013-07-20 13:52:00,79.0,38.1,29.54,NNW,346,9.0,19.0,23,0.00,,---,0.01,VWS V14.01,2013-07-20 19:52:00,
2013-07-20 14:00:00,80.1,39.0,29.54,WNW,302,16.0,19.0,23,0.00,,---,0.01,VWS V14.01,2013-07-20 20:00:00,
2013-07-20 14:10:00,81.1,40.9,29.51,NNW,348,10.0,19.0,24,0.00,,---,0.01,VWS V14.01,2013-07-20 20:10:00,
2013-07-20 14:12:00,81.1,40.9,29.51,NNW,348,10.0,19.0,24,0.00,,---,0.01,VWS V14.01,2013-07-20 20:12:00,
2013-07-20 14:20:00,78.1,37.3,29.55,NW,326,11.0,18.0,23,0.00,,---,0.01,VWS V14.01,2013-07-20 20:20:00,
2013-07-20 14:22:00,78.1,37.3,29.55,NW,326,11.0,18.0,23,0.00,,---,0.01,VWS V14.01,2013-07-20 20:22:00,
2013-07-20 14:30:00,77.6,40.0,29.55,NW,313,9.0,17.0,26,0.00,,---,0.01,VWS V14.01,2013-07-20 20:30:00,
2013-07-20 14:32:00,77.6,40.0,29.55,NW,313,9.0,17.0,26,0.00,,---,0.01,VWS V14.01,2013-07-20 20:32:00,
2013-07-20 14:40:00,78.9,36.9,29.52,NW,307,18.0,21.0,22,0.00,,---,0.01,VWS V14.01,2013-07-20 20:40:00,
2013-07-20 14:50:00,78.7,37.8,29.52,NW,321,11.0,18.0,23,0.00,,---,0.01,VWS V14.01,2013-07-20 20:50:00,
2013-07-20 14:52:00,78.7,37.8,29.52,NW,321,11.0,18.0,23,0.00,,---,0.01,VWS V14.01,2013-07-20 20:52:00,
2013-07-20 15:00:00,77.8,38.2,29.54,NW,308,9.0,18.0,24,0.00,,---,0.01,VWS V14.01,2013-07-20 21:00:00,
2013-07-20 15:02:00,77.8,38.2,29.54,NW,308,9.0,18.0,24,0.00,,---,0.01,VWS V14.01,2013-07-20 21:02:00,
2013-07-20 15:10:00,78.7,36.7,29.53,WNW,303,1.0,14.0,22,0.00,,---,0.01,VWS V14.01,2013-07-20 21:10:00,
2013-07-20 15:12:00,78.7,36.7,29.53,WNW,303,1.0,14.0,22,0.00,,---,0.01,VWS V14.01,2013-07-20 21:12:00,
2013-07-20 15:20:00,79.7,33.8,29.52,NW,321,10.0,16.0,19,0.00,,---,0.01,VWS V14.01,2013-07-20 21:20:00,
2013-07-20 15:22:00,79.7,33.8,29.52,NW,321,10.0,16.0,19,0.00,,---,0.01,VWS V14.01,2013-07-20 21:22:00,
2013-07-20 15:30:00,80.6,38.3,29.51,WNW,294,9.0,19.0,22,0.00,,---,0.01,VWS V14.01,2013-07-20 21:30:00,
2013-07-20 15:32:00,80.6,38.3,29.51,WNW,294,9.0,19.0,22,0.00,,---,0.01,VWS V14.01,2013-07-20 21:32:00,
2013-07-20 15:40:00,81.0,33.5,29.52,NW,315,0.0,14.0,18,0.00,,---,0.01,VWS V14.01,2013-07-20 21:40:00,
2013-07-20 15:42:00,81.0,33.5,29.52,NW,315,0.0,14.0,18,0.00,,---,0.01,VWS V14.01,2013-07-20 21:42:00,
2013-07-20 15:50:00,81.2,35.1,29.51,NW,321,18.0,24.0,19,0.00,,---,0.01,VWS V14.01,2013-07-20 21:50:00,
2013-07-20 16:00:00,80.9,37.3,29.51,NNW,336,8.0,18.0,21,0.00,,---,0.01,VWS V14.01,2013-07-20 22:00:00,
2013-07-20 16:02:00,80.9,37.3,29.51,NNW,336,8.0,18.0,21,0.00,,---,0.01,VWS V14.01,2013-07-20 22:02:00,
2013-07-20 16:10:00,81.4,36.5,29.52,NNW,336,10.0,18.0,20,0.00,,---,0.01,VWS V14.01,2013-07-20 22:10:00,
2013-07-20 16:12:00,81.4,36.5,29.52,NNW,336,10.0,18.0,20,0.00,,---,0.01,VWS V14.01,2013-07-20 22:12:00,
2013-07-20 16:20:00,81.5,37.8,29.49,NW,323,9.0,17.0,21,0.00,,---,0.01,VWS V14.01,2013-07-20 22:20:00,
2013-07-20 16:22:00,81.5,37.8,29.49,NW,323,9.0,17.0,21,0.00,,---,0.01,VWS V14.01,2013-07-20 22:22:00,
2013-07-20 16:30:00,80.5,38.2,29.51,NW,321,13.0,17.0,22,0.00,,---,0.01,VWS V14.01,2013-07-20 22:30:00,
2013-07-20 16:32:00,80.5,38.2,29.51,NW,321,13.0,17.0,22,0.00,,---,0.01,VWS V14.01,2013-07-20 22:32:00,
2013-07-20 16:40:00,81.3,35.2,29.49,NW,309,6.0,17.0,19,0.00,,---,0.01,VWS V14.01,2013-07-20 22:40:00,
2013-07-20 16:42:00,81.3,35.1,29.49,NW,309,6.0,17.0,19,0.00,,---,0.01,VWS V14.01,2013-07-20 22:42:00,
2013-07-20 16:50:00,80.8,38.4,29.50,NW,318,0.0,15.0,22,0.00,,---,0.01,VWS V14.01,2013-07-20 22:50:00,
2013-07-20 16:52:00,80.8,38.5,29.50,NW,318,0.0,15.0,22,0.00,,---,0.01,VWS V14.01,2013-07-20 22:52:00,
2013-07-20 17:00:00,81.2,36.4,29.50,North,349,14.0,19.0,20,0.00,,---,0.01,VWS V14.01,2013-07-20 23:00:00,
2013-07-20 17:02:00,81.2,36.4,29.50,North,349,14.0,19.0,20,0.00,,---,0.01,VWS V14.01,2013-07-20 23:02:00,
2013-07-20 17:10:00,80.2,36.8,29.50,NW,325,11.0,21.0,21,0.00,,---,0.01,VWS V14.01,2013-07-20 23:10:00,
2013-07-20 17:12:00,80.2,36.8,29.50,NW,325,11.0,21.0,21,0.00,,---,0.01,VWS V14.01,2013-07-20 23:12:00,
2013-07-20 17:20:00,80.4,36.9,29.50,NW,325,11.0,22.0,21,0.00,,---,0.01,VWS V14.01,2013-07-20 23:20:00,
2013-07-20 17:30:00,79.8,37.6,29.51,NW,322,17.0,21.0,22,0.00,,---,0.01,VWS V14.01,2013-07-20 23:30:00,
2013-07-20 17:40:00,79.6,37.5,29.50,NNW,341,14.0,22.0,22,0.00,,---,0.01,VWS V14.01,2013-07-20 23:40:00,
2013-07-20 17:42:00,79.6,37.5,29.50,NNW,341,14.0,22.0,22,0.00,,---,0.01,VWS V14.01,2013-07-20 23:42:00,
2013-07-20 17:50:00,79.9,37.7,29.50,NNW,331,8.0,21.0,22,0.00,,---,0.01,VWS V14.01,2013-07-20 23:50:00,
2013-07-20 17:52:00,79.9,37.7,29.50,NNW,331,8.0,21.0,22,0.00,,---,0.01,VWS V14.01,2013-07-20 23:52:00,
2013-07-20 18:00:00,79.3,37.2,29.51,North,355,16.0,20.0,22,0.00,,---,0.01,VWS V14.01,2013-07-21 00:00:00,
2013-07-20 18:10:00,79.4,39.5,29.49,NNW,330,7.0,23.0,24,0.00,,---,0.01,VWS V14.01,2013-07-21 00:10:00,
2013-07-20 18:20:00,78.6,38.8,29.49,NW,326,10.0,18.0,24,0.00,,---,0.01,VWS V14.01,2013-07-21 00:20:00,
2013-07-20 18:30:00,78.0,39.4,29.48,NW,322,9.0,15.0,25,0.00,,---,0.01,VWS V14.01,2013-07-21 00:30:00,
2013-07-20 18:32:00,78.0,39.4,29.48,NW,322,9.0,15.0,25,0.00,,---,0.01,VWS V14.01,2013-07-21 00:32:00,
2013-07-20 18:40:00,75.8,37.5,29.50,NW,306,14.0,14.0,25,0.00,,---,0.01,VWS V14.01,2013-07-21 00:40:00,
2013-07-20 18:42:00,75.8,37.5,29.50,NW,306,14.0,14.0,25,0.00,,---,0.01,VWS V14.01,2013-07-21 00:42:00,
2013-07-20 18:50:00,75.7,38.4,29.50,NW,318,7.0,16.0,26,0.00,,---,0.01,VWS V14.01,2013-07-21 00:50:00,
2013-07-20 18:52:00,75.7,38.4,29.50,NW,318,7.0,16.0,26,0.00,,---,0.01,VWS V14.01,2013-07-21 00:52:00,
2013-07-20 19:00:00,77.1,37.6,29.51,NW,323,0.0,10.0,24,0.00,,---,0.01,VWS V14.01,2013-07-21 01:00:00,
2013-07-20 19:02:00,77.1,37.6,29.51,NW,323,0.0,10.0,24,0.00,,---,0.01,VWS V14.01,2013-07-21 01:02:00,
2013-07-20 19:10:00,76.4,47.5,29.45,NW,321,0.0,3.0,36,0.00,,---,0.01,VWS V14.01,2013-07-21 01:10:00,
2013-07-20 19:12:00,76.4,47.5,29.45,NW,321,0.0,3.0,36,0.00,,---,0.01,VWS V14.01,2013-07-21 01:12:00,
2013-07-20 19:20:00,74.4,47.2,29.47,SSW,213,1.0,4.0,38,0.00,,---,0.01,VWS V14.01,2013-07-21 01:20:00,
2013-07-20 19:22:00,74.4,47.2,29.47,SSW,213,1.0,4.0,38,0.00,,---,0.01,VWS V14.01,2013-07-21 01:22:00,
2013-07-20 19:30:00,73.1,48.0,29.48,SSE,152,6.0,10.0,41,0.00,,---,0.01,VWS V14.01,2013-07-21 01:30:00,
2013-07-20 19:40:00,72.0,48.9,29.48,SSE,167,2.0,12.0,44,0.00,,---,0.01,VWS V14.01,2013-07-21 01:40:00,
2013-07-20 19:42:00,72.0,48.9,29.48,SSE,167,2.0,12.0,44,0.00,,---,0.01,VWS V14.01,2013-07-21 01:42:00,
2013-07-20 19:50:00,71.3,49.5,29.50,SSE,164,0.0,12.0,46,0.00,,---,0.01,VWS V14.01,2013-07-21 01:50:00,
2013-07-20 19:52:00,71.3,49.5,29.50,SSE,164,0.0,12.0,46,0.00,,---,0.01,VWS V14.01,2013-07-21 01:52:00,
2013-07-20 20:00:00,70.6,48.8,29.50,SSE,167,0.0,7.0,46,0.00,,---,0.01,VWS V14.01,2013-07-21 02:00:00,
2013-07-20 20:10:00,70.0,49.4,29.49,South,169,0.0,0.0,48,0.00,,---,0.01,VWS V14.01,2013-07-21 02:10:00,
2013-07-20 20:12:00,70.0,49.4,29.49,South,169,0.0,0.0,48,0.00,,---,0.01,VWS V14.01,2013-07-21 02:12:00,
2013-07-20 20:20:00,69.2,49.2,29.49,SSE,160,0.0,3.0,49,0.00,,---,0.01,VWS V14.01,2013-07-21 02:20:00,
2013-07-20 20:30:00,68.9,49.0,29.49,SSE,159,5.0,8.0,49,0.00,,---,0.01,VWS V14.01,2013-07-21 02:30:00,
2013-07-20 20:32:00,68.9,49.0,29.49,SSE,159,5.0,8.0,49,0.00,,---,0.01,VWS V14.01,2013-07-21 02:32:00,
2013-07-20 20:40:00,67.8,50.1,29.51,SE,146,0.0,5.0,53,0.00,,---,0.01,VWS V14.01,2013-07-21 02:40:00,
2013-07-20 20:42:00,67.8,50.1,29.51,SE,146,0.0,5.0,53,0.00,,---,0.01,VWS V14.01,2013-07-21 02:42:00,
2013-07-20 20:50:00,67.5,49.8,29.52,SE,143,0.0,5.0,53,0.00,,---,0.01,VWS V14.01,2013-07-21 02:50:00,
2013-07-20 20:52:00,67.5,49.8,29.52,SE,143,0.0,5.0,53,0.00,,---,0.01,VWS V14.01,2013-07-21 02:52:00,
2013-07-20 21:00:00,66.8,49.1,29.53,SE,144,0.0,5.0,53,0.00,,---,0.01,VWS V14.01,2013-07-21 03:00:00,
2013-07-20 21:02:00,66.8,49.1,29.53,SE,144,0.0,5.0,53,0.00,,---,0.01,VWS V14.01,2013-07-21 03:02:00,
2013-07-20 21:10:00,66.3,49.2,29.52,SE,144,0.0,0.0,54,0.00,,---,0.01,VWS V14.01,2013-07-21 03:10:00,
2013-07-20 21:12:00,66.3,49.2,29.52,SE,144,0.0,0.0,54,0.00,,---,0.01,VWS V14.01,2013-07-21 03:12:00,
2013-07-20 21:20:00,66.4,49.3,29.53,SE,144,0.0,0.0,54,0.00,,---,0.01,VWS V14.01,2013-07-21 03:20:00,
2013-07-20 21:22:00,66.4,49.3,29.53,SE,144,0.0,0.0,54,0.00,,---,0.01,VWS V14.01,2013-07-21 03:22:00,
2013-07-20 21:30:00,65.2,51.0,29.54,SE,144,0.0,0.0,60,0.00,,---,0.01,VWS V14.01,2013-07-21 03:30:00,
2013-07-20 21:32:00,65.2,51.0,29.54,SE,144,0.0,0.0,60,0.00,,---,0.01,VWS V14.01,2013-07-21 03:32:00,
2013-07-20 21:40:00,64.0,49.8,29.56,SSW,202,0.0,0.0,60,0.00,,---,0.01,VWS V14.01,2013-07-21 03:40:00,
2013-07-20 21:50:00,63.5,50.3,29.56,SSW,202,0.0,0.0,62,0.00,,---,0.01,VWS V14.01,2013-07-21 03:50:00,
2013-07-20 21:52:00,63.5,50.3,29.56,SSW,202,0.0,0.0,62,0.00,,---,0.01,VWS V14.01,2013-07-21 03:52:00,
2013-07-20 22:00:00,62.4,50.5,29.57,SSW,202,0.0,0.0,65,0.00,,---,0.01,VWS V14.01,2013-07-21 04:00:00,
2013-07-20 22:02:00,62.4,50.5,29.57,SSW,202,0.0,0.0,65,0.00,,---,0.01,VWS V14.01,2013-07-21 04:02:00,
2013-07-20 22:10:00,62.0,50.5,29.55,WNW,282,0.0,0.0,66,0.00,,---,0.01,VWS V14.01,2013-07-21 04:10:00,
2013-07-20 22:12:00,62.0,50.5,29.55,WNW,282,0.0,0.0,66,0.00,,---,0.01,VWS V14.01,2013-07-21 04:12:00,
2013-07-20 22:20:00,62.2,50.3,29.55,WNW,287,0.0,3.0,65,0.00,,---,0.01,VWS V14.01,2013-07-21 04:20:00,
2013-07-20 22:22:00,62.2,50.3,29.55,WNW,287,0.0,3.0,65,0.00,,---,0.01,VWS V14.01,2013-07-21 04:22:00,
2013-07-20 22:30:00,62.4,50.1,29.55,WNW,287,0.0,3.0,64,0.00,,---,0.01,VWS V14.01,2013-07-21 04:30:00,
2013-07-20 22:32:00,62.4,50.1,29.55,WNW,287,0.0,3.0,64,0.00,,---,0.01,VWS V14.01,2013-07-21 04:32:00,
2013-07-20 22:40:00,63.1,49.9,29.55,WNW,288,0.0,0.0,62,0.00,,---,0.01,VWS V14.01,2013-07-21 04:40:00,
2013-07-20 22:42:00,63.1,49.9,29.55,WNW,288,0.0,0.0,62,0.00,,---,0.01,VWS V14.01,2013-07-21 04:42:00,
2013-07-20 22:50:00,63.0,50.2,29.56,WNW,288,0.0,0.0,63,0.00,,---,0.01,VWS V14.01,2013-07-21 04:50:00,
2013-07-20 22:52:00,63.0,50.2,29.56,WNW,288,0.0,0.0,63,0.00,,---,0.01,VWS V14.01,2013-07-21 04:52:00,
2013-07-20 23:00:00,61.6,50.2,29.56,WNW,288,0.0,0.0,66,0.00,,---,0.01,VWS V14.01,2013-07-21 05:00:00,
2013-07-20 23:02:00,61.6,50.1,29.56,WNW,288,0.0,0.0,66,0.00,,---,0.01,VWS V14.01,2013-07-21 05:02:00,
2013-07-20 23:10:00,60.1,50.7,29.52,WNW,287,0.0,0.0,71,0.00,,---,0.01,VWS V14.01,2013-07-21 05:10:00,
2013-07-20 23:12:00,60.1,50.7,29.52,WNW,287,0.0,0.0,71,0.00,,---,0.01,VWS V14.01,2013-07-21 05:12:00,
2013-07-20 23:20:00,59.8,50.4,29.52,WNW,288,0.0,0.0,71,0.00,,---,0.01,VWS V14.01,2013-07-21 05:20:00,
2013-07-20 23:22:00,59.8,50.4,29.52,WNW,288,0.0,0.0,71,0.00,,---,0.01,VWS V14.01,2013-07-21 05:22:00,
2013-07-20 23:30:00,60.0,50.6,29.53,WNW,288,0.0,1.0,71,0.00,,---,0.01,VWS V14.01,2013-07-21 05:30:00,
2013-07-20 23:32:00,60.0,50.6,29.53,WNW,288,0.0,1.0,71,0.00,,---,0.01,VWS V14.01,2013-07-21 05:32:00,
2013-07-20 23:40:00,59.4,50.0,29.52,WNW,288,0.0,0.0,71,0.00,,---,0.01,VWS V14.01,2013-07-21 05:40:00,
2013-07-20 23:42:00,59.4,50.0,29.52,WNW,288,0.0,0.0,71,0.00,,---,0.01,VWS V14.01,2013-07-21 05:42:00,
2013-07-20 23:50:00,59.0,50.7,29.52,WNW,288,0.0,3.0,74,0.00,,---,0.01,VWS V14.01,2013-07-21 05:50:00,
2013-07-20 23:52:00,59.0,50.7,29.52,WNW,288,0.0,3.0,74,0.00,,---,0.01,VWS V14.01,2013-07-21 05:52:00,